UKV281 EGLL-EINN

Flight info

Callsign UKV281
Flight time 0h 59m
Altitude 38000
Route CPT L9 BUCGO DCT FELCA DCT OFSOX DCT SLANY DCT TIPUR TIPUR2E
Aircraft B38M/M-SDE1FGHILORVWXY/HB1

Departure

Time 2026-05-04 07:08
Airport London Heathrow Airport (EGLL)

Arrival

Time 2026-05-04 08:08
Airport Shannon Airport (EINN)
Time Latitude Longitude Altitude Speed Heading
2026-05-04 06:05 51.46810 -0.45043 87 ft 0 kts 358°
2026-05-04 06:57 51.46753 -0.45093 90 ft 1 kts 90°
2026-05-04 07:02 51.46753 -0.45067 91 ft 6 kts 90°
2026-05-04 07:03 51.46753 -0.44972 87 ft 9 kts 90°
2026-05-04 07:03 51.46753 -0.44862 87 ft 10 kts 90°
2026-05-04 07:03 51.46753 -0.44742 87 ft 11 kts 90°
2026-05-04 07:03 51.46754 -0.44612 87 ft 12 kts 90°
2026-05-04 07:04 51.46754 -0.44473 87 ft 13 kts 90°
2026-05-04 07:04 51.46754 -0.44326 87 ft 13 kts 89°
2026-05-04 07:04 51.46755 -0.44176 88 ft 14 kts 89°
2026-05-04 07:04 51.46766 -0.44025 87 ft 14 kts 80°
2026-05-04 07:05 51.46770 -0.43872 87 ft 14 kts 89°
2026-05-04 07:05 51.46771 -0.43721 89 ft 11 kts 89°
2026-05-04 07:05 51.46743 -0.43613 87 ft 11 kts 157°
2026-05-04 07:05 51.46665 -0.43608 86 ft 12 kts 179°
2026-05-04 07:06 51.46640 -0.43607 87 ft 0 kts 179°
2026-05-04 07:06 51.46611 -0.43606 87 ft 7 kts 178°
2026-05-04 07:07 51.46557 -0.43603 88 ft 11 kts 178°
2026-05-04 07:08 51.46383 -0.50974 1296 ft 214 kts 270°
2026-05-04 07:09 51.46355 -0.53351 2371 ft 221 kts 270°
2026-05-04 07:09 51.46323 -0.55947 2994 ft 243 kts 270°
2026-05-04 07:09 51.46286 -0.58722 3683 ft 261 kts 270°
2026-05-04 07:09 51.46244 -0.61646 4704 ft 262 kts 268°
2026-05-04 07:10 51.45963 -0.64552 5621 ft 268 kts 256°
2026-05-04 07:10 51.45675 -0.67502 5734 ft 267 kts 267°
2026-05-04 07:12 51.45322 -0.88419 5990 ft 269 kts 276°
2026-05-04 07:12 51.45653 -0.91371 5998 ft 269 kts 280°
2026-05-04 07:12 51.46005 -0.94317 5988 ft 269 kts 279°
2026-05-04 07:12 51.46351 -0.97270 5996 ft 270 kts 280°
2026-05-04 07:13 51.46694 -1.00239 6005 ft 271 kts 280°
2026-05-04 07:13 51.47034 -1.03209 6001 ft 271 kts 280°
2026-05-04 07:13 51.47373 -1.06182 5995 ft 271 kts 279°
2026-05-04 07:14 51.48714 -1.18023 6001 ft 271 kts 279°
2026-05-04 07:14 51.49152 -1.20969 6103 ft 274 kts 295°
2026-05-04 07:15 51.50294 -1.23366 7016 ft 272 kts 314°
2026-05-04 07:15 51.51655 -1.25541 7863 ft 280 kts 314°
2026-05-04 07:15 51.53062 -1.27751 8819 ft 283 kts 315°
2026-05-04 07:15 51.54477 -1.29940 9701 ft 289 kts 315°
2026-05-04 07:16 51.55945 -1.32193 10434 ft 298 kts 315°
2026-05-04 07:16 51.57500 -1.34566 10835 ft 318 kts 315°
2026-05-04 07:16 51.59152 -1.37080 11269 ft 335 kts 315°
2026-05-04 07:16 51.60783 -1.39847 11832 ft 344 kts 302°
2026-05-04 07:17 51.61947 -1.43195 12687 ft 345 kts 297°
2026-05-04 07:17 51.63112 -1.46613 13437 ft 351 kts 297°
2026-05-04 07:17 51.64282 -1.50084 14185 ft 355 kts 297°
2026-05-04 07:17 51.65459 -1.53606 14910 ft 359 kts 296°
2026-05-04 07:18 51.66643 -1.57162 15637 ft 362 kts 296°
2026-05-04 07:18 51.67837 -1.60758 16351 ft 366 kts 296°
2026-05-04 07:18 51.69043 -1.64396 17052 ft 370 kts 296°
2026-05-04 07:18 51.70154 -1.68140 17720 ft 371 kts 285°
2026-05-04 07:19 51.70616 -1.72221 18388 ft 372 kts 275°
2026-05-04 07:19 51.70957 -1.76391 18948 ft 376 kts 275°
2026-05-04 07:19 51.71283 -1.80576 19572 ft 378 kts 275°
2026-05-04 07:19 51.71594 -1.84740 20162 ft 381 kts 274°
2026-05-04 07:20 51.71903 -1.88997 20767 ft 383 kts 274°
2026-05-04 07:20 51.72210 -1.93277 21362 ft 386 kts 274°
2026-05-04 07:20 51.72517 -1.97595 21918 ft 390 kts 274°
2026-05-04 07:20 51.72827 -2.01972 22463 ft 393 kts 274°
2026-05-04 07:22 51.74991 -2.33304 25784 ft 411 kts 273°
2026-05-04 07:22 51.75302 -2.37911 26196 ft 414 kts 273°
2026-05-04 07:23 51.75613 -2.42540 26618 ft 417 kts 273°
2026-05-04 07:23 51.75925 -2.47215 26929 ft 422 kts 274°
2026-05-04 07:23 51.76240 -2.51963 27244 ft 426 kts 274°
2026-05-04 07:23 51.76553 -2.56722 27688 ft 428 kts 274°
2026-05-04 07:24 51.76867 -2.61521 28058 ft 431 kts 274°
2026-05-04 07:24 51.77181 -2.66344 28439 ft 433 kts 274°
2026-05-04 07:24 51.77491 -2.71136 28802 ft 436 kts 274°
2026-05-04 07:24 51.77804 -2.76016 29152 ft 439 kts 274°
2026-05-04 07:25 51.78119 -2.80953 29412 ft 444 kts 275°
2026-05-04 07:26 51.80325 -3.16522 31404 ft 464 kts 275°
2026-05-04 07:27 51.80639 -3.21730 31649 ft 467 kts 275°
2026-05-04 07:27 51.80948 -3.26887 31952 ft 468 kts 275°
2026-05-04 07:27 51.81257 -3.32111 32352 ft 467 kts 275°
2026-05-04 07:27 51.81565 -3.37337 32673 ft 467 kts 275°
2026-05-04 07:28 51.81871 -3.42566 33014 ft 468 kts 275°
2026-05-04 07:28 51.82176 -3.47813 33314 ft 469 kts 275°
2026-05-04 07:28 51.82494 -3.53061 33666 ft 468 kts 278°
2026-05-04 07:28 51.83108 -3.58225 34019 ft 467 kts 282°
2026-05-04 07:29 51.83766 -3.63373 34307 ft 467 kts 282°
2026-05-04 07:29 51.84430 -3.68520 34610 ft 467 kts 282°
2026-05-04 07:29 51.85091 -3.73652 34921 ft 466 kts 282°
2026-05-04 07:29 51.85750 -3.78772 35217 ft 465 kts 282°
2026-05-04 07:30 51.86407 -3.83901 35515 ft 465 kts 282°
2026-05-04 07:30 51.87060 -3.89011 35810 ft 464 kts 282°
2026-05-04 07:30 51.87712 -3.94136 36058 ft 465 kts 282°
2026-05-04 07:30 51.88353 -3.99188 36337 ft 464 kts 282°
2026-05-04 07:31 51.88999 -4.04304 36620 ft 463 kts 282°
2026-05-04 07:31 51.89641 -4.09407 36883 ft 463 kts 282°
2026-05-04 07:33 51.94065 -4.45086 37984 ft 459 kts 281°
2026-05-04 07:33 51.94686 -4.50166 38006 ft 460 kts 282°
2026-05-04 07:33 51.95914 -4.60281 37979 ft 461 kts 282°
2026-05-04 07:34 51.97148 -4.70522 37992 ft 462 kts 281°
2026-05-04 07:34 51.98369 -4.80740 37994 ft 461 kts 282°
2026-05-04 07:35 51.99583 -4.90971 38003 ft 462 kts 282°
2026-05-04 07:35 52.00790 -5.01224 37999 ft 463 kts 282°
2026-05-04 07:36 52.01989 -5.11473 37989 ft 462 kts 282°
2026-05-04 07:38 52.09348 -5.51402 38005 ft 462 kts 290°
2026-05-04 07:38 52.11331 -5.61342 38000 ft 463 kts 289°
2026-05-04 07:39 52.13313 -5.71330 38014 ft 463 kts 288°
2026-05-04 07:39 52.15271 -5.81230 38018 ft 462 kts 289°
2026-05-04 07:40 52.17258 -5.91187 38013 ft 462 kts 290°
2026-05-04 07:40 52.19244 -6.01173 38013 ft 464 kts 289°
2026-05-04 07:41 52.21231 -6.11209 38025 ft 465 kts 289°
2026-05-04 07:41 52.23203 -6.21225 38019 ft 464 kts 289°
2026-05-04 07:42 52.24189 -6.26253 36949 ft 470 kts 289°
2026-05-04 07:42 52.25188 -6.31354 35669 ft 474 kts 290°
2026-05-04 07:42 52.26190 -6.36495 34511 ft 476 kts 291°
2026-05-04 07:42 52.27192 -6.41644 33449 ft 474 kts 291°
2026-05-04 07:43 52.28183 -6.46754 32782 ft 469 kts 292°
2026-05-04 07:43 52.29157 -6.51792 32394 ft 461 kts 292°
2026-05-04 07:43 52.30113 -6.56749 31971 ft 455 kts 292°
2026-05-04 07:43 52.31061 -6.61671 31398 ft 453 kts 292°
2026-05-04 07:44 52.32005 -6.66589 30752 ft 454 kts 293°
2026-05-04 07:44 52.32950 -6.71521 30124 ft 454 kts 293°
2026-05-04 07:44 52.33877 -6.76385 29420 ft 453 kts 292°
2026-05-04 07:44 52.34823 -6.81351 28825 ft 450 kts 292°
2026-05-04 07:45 52.35736 -6.86157 28269 ft 447 kts 292°
2026-05-04 07:45 52.36654 -6.91001 27679 ft 445 kts 292°
2026-05-04 07:45 52.37567 -6.95832 27082 ft 443 kts 292°
2026-05-04 07:45 52.38473 -7.00638 26495 ft 441 kts 291°
2026-05-04 07:46 52.39373 -7.05424 25912 ft 439 kts 291°
2026-05-04 07:46 52.40269 -7.10201 25340 ft 438 kts 291°
2026-05-04 07:46 52.41159 -7.14959 24767 ft 436 kts 291°
2026-05-04 07:46 52.42045 -7.19705 24216 ft 435 kts 291°
2026-05-04 07:47 52.42926 -7.24436 23656 ft 433 kts 290°
2026-05-04 07:47 52.43803 -7.29157 23009 ft 431 kts 290°
2026-05-04 07:47 52.44671 -7.33847 22460 ft 428 kts 290°
2026-05-04 07:49 52.50250 -7.64251 19138 ft 386 kts 289°
2026-05-04 07:49 52.51015 -7.68465 18690 ft 384 kts 289°
2026-05-04 07:49 52.51780 -7.72681 18232 ft 383 kts 288°
2026-05-04 07:50 52.52535 -7.76856 17748 ft 380 kts 288°
2026-05-04 07:50 52.53283 -7.80997 17301 ft 373 kts 288°
2026-05-04 07:50 52.54004 -7.84999 16896 ft 359 kts 288°
2026-05-04 07:50 52.54698 -7.88862 16482 ft 357 kts 288°
2026-05-04 07:51 52.55397 -7.92757 16079 ft 354 kts 288°
2026-05-04 07:51 52.56094 -7.96640 15676 ft 352 kts 288°
2026-05-04 07:51 52.56784 -8.00498 15274 ft 351 kts 288°
2026-05-04 07:51 52.57469 -8.04333 14873 ft 349 kts 288°
2026-05-04 07:52 52.58150 -8.08158 14480 ft 347 kts 288°
2026-05-04 07:52 52.58693 -8.12013 14063 ft 348 kts 275°
2026-05-04 07:52 52.58472 -8.15976 13597 ft 350 kts 260°
2026-05-04 07:52 52.58018 -8.19888 13207 ft 347 kts 260°
2026-05-04 07:53 52.57576 -8.23711 12849 ft 343 kts 260°
2026-05-04 07:54 52.54421 -8.49911 10481 ft 318 kts 259°
2026-05-04 07:55 52.53993 -8.53404 10373 ft 305 kts 260°
2026-05-04 07:55 52.53584 -8.56744 10211 ft 293 kts 260°
2026-05-04 07:55 52.53189 -8.59971 10067 ft 285 kts 260°
2026-05-04 07:55 52.52799 -8.63151 9781 ft 286 kts 260°
2026-05-04 07:56 52.52399 -8.66388 9446 ft 291 kts 260°
2026-05-04 07:56 52.51996 -8.69654 9131 ft 292 kts 260°
2026-05-04 07:56 52.51728 -8.71819 8937 ft 292 kts 260°
2026-05-04 07:56 52.51322 -8.75091 8639 ft 293 kts 260°
2026-05-04 07:57 52.50914 -8.78371 8330 ft 293 kts 259°
2026-05-04 07:57 52.50508 -8.81630 8018 ft 290 kts 260°
2026-05-04 07:57 52.49973 -8.85908 7620 ft 287 kts 260°
2026-05-04 07:57 52.49571 -8.89105 7324 ft 285 kts 260°
2026-05-04 07:58 52.49301 -8.91257 7127 ft 284 kts 260°
2026-05-04 07:58 52.48904 -8.94416 6829 ft 281 kts 261°
2026-05-04 07:58 52.48510 -8.97540 6539 ft 279 kts 260°
2026-05-04 07:58 52.48124 -9.00586 6338 ft 271 kts 261°
2026-05-04 07:59 52.47754 -9.03514 6260 ft 251 kts 260°
2026-05-04 07:59 52.47413 -9.06208 6189 ft 232 kts 261°
2026-05-04 07:59 52.47238 -9.08716 6033 ft 214 kts 281°
2026-05-04 07:59 52.47738 -9.10895 5750 ft 200 kts 309°
2026-05-04 08:00 52.48686 -9.12507 5566 ft 196 kts 321°
2026-05-04 08:00 52.49700 -9.13974 5419 ft 193 kts 322°
2026-05-04 08:00 52.50724 -9.15398 5209 ft 192 kts 324°
2026-05-04 08:02 52.57565 -9.18754 3812 ft 164 kts 49°
2026-05-04 08:02 52.58307 -9.17324 3586 ft 164 kts 49°
2026-05-04 08:02 52.59041 -9.15901 3363 ft 162 kts 48°
2026-05-04 08:03 52.59770 -9.14499 3145 ft 160 kts 50°
2026-05-04 08:03 52.60458 -9.13099 2951 ft 155 kts 51°
2026-05-04 08:03 52.61125 -9.11706 2765 ft 154 kts 52°
2026-05-04 08:03 52.61783 -9.10311 2522 ft 153 kts 51°
2026-05-04 08:04 52.62418 -9.08971 2347 ft 144 kts 50°
2026-05-04 08:04 52.63014 -9.07710 2200 ft 139 kts 51°
2026-05-04 08:04 52.63604 -9.06459 1975 ft 138 kts 51°
2026-05-04 08:04 52.64183 -9.05233 1774 ft 134 kts 51°
2026-05-04 08:05 52.64754 -9.04025 1593 ft 134 kts 51°
2026-05-04 08:05 52.65326 -9.02811 1420 ft 134 kts 50°
2026-05-04 08:05 52.65902 -9.01590 1223 ft 136 kts 51°
2026-05-04 08:05 52.66492 -9.00338 1047 ft 141 kts 51°
2026-05-04 08:06 52.67100 -8.99048 830 ft 143 kts 50°
2026-05-04 08:06 52.67703 -8.97749 602 ft 142 kts 52°
2026-05-04 08:06 52.68294 -8.96468 395 ft 140 kts 47°
2026-05-04 08:06 52.68909 -8.95212 237 ft 143 kts 52°
2026-05-04 08:08 52.70632 -8.91143 13 ft 0 kts 170°
2026-05-04 08:11 52.70624 -8.91141 11 ft 2 kts 168°
2026-05-04 08:11 52.70585 -8.91128 12 ft 11 kts 168°
2026-05-04 08:12 52.70494 -8.91099 12 ft 15 kts 169°
2026-05-04 08:12 52.70386 -8.91064 13 ft 17 kts 169°
2026-05-04 08:12 52.70264 -8.91027 13 ft 19 kts 169°
2026-05-04 08:12 52.70132 -8.91044 17 ft 20 kts 199°
2026-05-04 08:13 52.69993 -8.91122 16 ft 22 kts 198°
2026-05-04 08:13 52.69844 -8.91204 19 ft 23 kts 199°
2026-05-04 08:13 52.69685 -8.91293 18 ft 25 kts 199°
2026-05-04 08:13 52.69518 -8.91386 20 ft 26 kts 199°
2026-05-04 08:14 52.69358 -8.91473 22 ft 11 kts 198°
2026-05-04 08:14 52.69301 -8.91504 22 ft 7 kts 198°
2026-05-04 08:14 52.69259 -8.91535 22 ft 5 kts 226°
2026-05-04 08:16 52.69349 -8.91753 23 ft 0 kts 313°
2026-05-04 08:16 52.69359 -8.91758 22 ft 5 kts 347°
2026-05-04 08:16 52.69412 -8.91798 22 ft 11 kts 315°
2026-05-04 08:17 52.69438 -8.91912 23 ft 8 kts 256°
2026-05-04 08:17 52.69401 -8.91953 23 ft 7 kts 185°
2026-05-04 08:17 52.69370 -8.91958 27 ft 2 kts 185°
2026-05-04 08:17 52.69361 -8.91959 27 ft 1 kts 185°